QPF
0.00 0.00 0.01 0.03 0.03 0.03 0.02 0.02 0.02 0.02 0.02 0.02 0.02 0.03 0.04 0.05 0.06 0.06 0.09 0.11 0.09 0.08 0.08 0.07 0.06 0.05 0.04 0.04 0.04 0.04 0.03 0.04 0.06 0.07 0.07 0.06 0.05 0.05 0.06 0.05 0.04 0.05 0.06
0.00 0.00 0.02 0.04 0.02 0.02 0.02 0.03 0.02 0.02 0.02 0.02 0.02 0.03 0.04 0.05 0.07 0.12 0.11 0.06 0.07 0.08 0.08 0.07 0.04 0.04 0.03 0.03 0.02 0.02 0.02 0.03 0.05 0.07 0.07 0.05 0.05 0.05 0.06 0.04 0.04 0.05 0.05
0.00 0.00 0.02 0.04 0.02 0.02 0.03 0.03 0.03 0.03 0.02 0.02 0.02 0.04 0.05 0.06 0.09 0.09 0.06 0.06 0.06 0.06 0.05 0.05 0.04 0.04 0.03 0.02 0.02 0.02 0.02 0.02 0.04 0.06 0.08 0.07 0.06 0.07 0.06 0.05 0.06 0.06 0.05
0.01 0.01 0.02 0.03 0.02 0.02 0.03 0.03 0.03 0.03 0.02 0.02 0.04 0.05 0.06 0.06 0.06 0.06 0.07 0.07 0.06 0.05 0.04 0.03 0.03 0.03 0.02 0.02 0.01 0.02 0.02 0.01 0.02 0.04 0.08 0.07 0.07 0.08 0.07 0.06 0.06 0.05 0.04
0.01 0.02 0.02 0.03 0.03 0.02 0.02 0.02 0.03 0.03 0.03 0.03 0.05 0.05 0.06 0.07 0.06 0.07 0.07 0.06 0.06 0.05 0.02 0.02 0.02 0.02 0.02 0.01 0.02 0.02 0.01 0.01 0.02 0.03 0.05 0.05 0.06 0.08 0.07 0.05 0.04 0.04 0.04
0.02 0.02 0.02 0.03 0.03 0.03 0.03 0.03 0.03 0.03 0.04 0.03 0.05 0.05 0.04 0.04 0.05 0.06 0.05 0.04 0.03 0.03 0.02 0.02 0.02 0.02 0.03 0.02 0.02 0.02 0.02 0.02 0.03 0.03 0.04 0.03 0.04 0.06 0.05 0.03 0.02 0.03 0.03
0.02 0.02 0.02 0.03 0.03 0.04 0.05 0.04 0.04 0.04 0.04 0.05 0.06 0.08 0.06 0.04 0.05 0.05 0.05 0.05 0.04 0.03 0.02 0.02 0.02 0.02 0.02 0.02 0.02 0.02 0.02 0.02 0.03 0.05 0.06 0.04 0.05 0.07 0.06 0.05 0.04 0.04 0.04
0.02 0.02 0.03 0.03 0.03 0.03 0.04 0.05 0.05 0.05 0.05 0.05 0.06 0.08 0.07 0.05 0.05 0.05 0.05 0.05 0.05 0.04 0.03 0.02 0.01 0.02 0.02 0.01 0.01 0.02 0.02 0.02 0.03 0.06 0.06 0.05 0.06 0.07 0.07 0.05 0.06 0.06 0.06
0.02 0.02 0.02 0.02 0.02 0.02 0.03 0.04 0.05 0.04 0.05 0.05 0.05 0.06 0.05 0.04 0.04 0.04 0.04 0.04 0.04 0.04 0.03 0.02 0.02 0.02 0.02 0.01 0.01 0.01 0.01 0.02 0.02 0.05 0.05 0.06 0.06 0.07 0.06 0.04 0.05 0.05 0.04
0.02 0.02 0.01 0.01 0.01 0.02 0.03 0.04 0.04 0.04 0.04 0.04 0.04 0.05 0.04 0.04 0.03 0.04 0.04 0.03 0.03 0.03 0.02 0.02 0.02 0.02 0.01 0.01 0.01 0.01 0.01 0.01 0.03 0.04 0.05 0.06 0.06 0.06 0.06 0.05 0.05 0.05 0.04
0.02 0.02 0.01 0.01 0.01 0.02 0.03 0.04 0.05 0.05 0.05 0.05 0.05 0.05 0.04 0.05 0.04 0.04 0.03 0.02 0.01 0.01 0.01 0.02 0.02 0.02 0.01 0.01 0.00 0.01 0.01 0.01 0.02 0.04 0.05 0.07 0.07 0.07 0.07 0.07 0.06 0.06 0.05
0.02 0.02 0.02 0.02 0.03 0.03 0.03 0.04 0.05 0.06 0.08 0.08 0.06 0.05 0.06 0.06 0.05 0.03 0.02 0.01 0.01 0.01 0.01 0.02 0.02 0.01 0.01 0.01 0.01 0.01 0.01 0.01 0.02 0.04 0.05 0.07 0.07 0.07 0.07 0.07 0.06 0.06 0.05
0.02 0.02 0.02 0.02 0.03 0.04 0.04 0.04 0.05 0.06 0.08 0.10 0.09 0.07 0.06 0.06 0.06 0.04 0.02 0.01 0.01 0.00 0.00 0.01 0.01 0.01 0.01 0.01 0.01 0.01 0.01 0.01 0.01 0.03 0.04 0.06 0.07 0.07 0.07 0.06 0.06 0.05 0.05
0.02 0.02 0.02 0.02 0.03 0.04 0.04 0.04 0.05 0.07 0.08 0.10 0.10 0.10 0.07 0.06 0.05 0.03 0.02 0.01 0.00 0.00 0.00 0.00 0.00 0.01 0.01 0.01 0.01 0.01 0.01 0.02 0.02 0.02 0.03 0.05 0.05 0.06 0.06 0.06 0.06 0.06 0.05
0.01 0.02 0.02 0.02 0.03 0.03 0.05 0.05 0.04 0.06 0.08 0.09 0.11 0.13 0.10 0.06 0.05 0.04 0.03 0.02 0.01 0.00 0.00 0.00 0.00 0.00 0.00 0.00 0.01 0.01 0.01 0.02 0.02 0.02 0.02 0.03 0.03 0.04 0.04 0.05 0.04 0.04 0.04
0.01 0.02 0.02 0.02 0.03 0.03 0.04 0.04 0.05 0.05 0.06 0.07 0.08 0.09 0.09 0.07 0.07 0.05 0.03 0.02 0.02 0.01 0.00 0.00 0.00 0.00 0.00 0.00 0.00 0.01 0.01 0.01 0.01 0.02 0.02 0.02 0.03 0.04 0.04 0.04 0.04 0.03 0.03
0.02 0.02 0.02 0.02 0.03 0.03 0.04 0.05 0.05 0.05 0.06 0.06 0.07 0.08 0.09 0.07 0.06 0.06 0.04 0.02 0.02 0.02 0.01 0.01 0.00 0.00 0.00 0.00 0.00 0.01 0.01 0.01 0.01 0.01 0.01 0.02 0.03 0.03 0.04 0.04 0.03 0.03 0.03
0.02 0.02 0.02 0.03 0.03 0.03 0.04 0.05 0.06 0.06 0.06 0.06 0.06 0.07 0.08 0.09 0.07 0.06 0.04 0.03 0.02 0.02 0.02 0.02 0.01 0.01 0.01 0.01 0.01 0.01 0.01 0.01 0.01 0.01 0.01 0.01 0.02 0.02 0.03 0.02 0.02 0.03 0.04
0.03 0.03 0.02 0.03 0.03 0.03 0.03 0.04 0.05 0.05 0.06 0.06 0.05 0.05 0.06 0.07 0.07 0.07 0.05 0.03 0.02 0.03 0.03 0.03 0.02 0.01 0.01 0.01 0.02 0.02 0.01 0.01 0.01 0.01 0.01 0.01 0.01 0.02 0.02 0.01 0.01 0.02 0.02
0.02 0.03 0.03 0.04 0.04 0.03 0.02 0.03 0.04 0.05 0.06 0.06 0.06 0.05 0.05 0.06 0.07 0.07 0.06 0.05 0.04 0.03 0.04 0.04 0.03 0.01 0.01 0.01 0.02 0.02 0.02 0.02 0.01 0.01 0.01 0.01 0.01 0.01 0.01 0.01 0.00 0.01 0.01
0.02 0.03 0.03 0.03 0.04 0.04 0.03 0.03 0.03 0.05 0.05 0.06 0.07 0.07 0.06 0.05 0.06 0.07 0.07 0.05 0.04 0.04 0.03 0.03 0.03 0.02 0.01 0.02 0.03 0.04 0.03 0.02 0.02 0.01 0.01 0.01 0.01 0.01 0.01 0.00 0.00 0.00 0.01
0.02 0.03 0.03 0.03 0.03 0.03 0.03 0.02 0.02 0.04 0.05 0.05 0.05 0.07 0.08 0.06 0.05 0.06 0.07 0.07 0.04 0.03 0.03 0.02 0.01 0.01 0.01 0.03 0.04 0.05 0.04 0.04 0.03 0.02 0.01 0.01 0.01 0.01 0.01 0.00 0.00 0.00 0.00
0.02 0.02 0.02 0.02 0.02 0.02 0.02 0.02 0.02 0.02 0.03 0.06 0.06 0.07 0.09 0.09 0.07 0.06 0.05 0.06 0.06 0.04 0.02 0.01 0.01 0.01 0.01 0.03 0.04 0.05 0.04 0.04 0.03 0.03 0.03 0.02 0.01 0.01 0.01 0.01 0.01 0.00 0.00
0.01 0.02 0.02 0.02 0.01 0.01 0.02 0.02 0.01 0.01 0.01 0.03 0.06 0.07 0.08 0.09 0.09 0.08 0.06 0.05 0.05 0.04 0.02 0.01 0.01 0.01 0.01 0.03 0.04 0.04 0.04 0.04 0.04 0.04 0.04 0.03 0.02 0.01 0.01 0.01 0.01 0.00 0.00
0.01 0.02 0.02 0.02 0.01 0.01 0.01 0.01 0.02 0.02 0.01 0.02 0.04 0.06 0.08 0.10 0.10 0.10 0.09 0.08 0.06 0.04 0.02 0.01 0.01 0.01 0.01 0.02 0.04 0.04 0.04 0.04 0.04 0.04 0.04 0.04 0.03 0.02 0.01 0.01 0.01 0.01 0.01
0.01 0.02 0.02 0.02 0.01 0.01 0.01 0.02 0.02 0.02 0.01 0.02 0.03 0.05 0.07 0.09 0.11 0.11 0.10 0.10 0.08 0.06 0.04 0.02 0.01 0.01 0.01 0.02 0.03 0.03 0.03 0.03 0.03 0.04 0.04 0.03 0.02 0.02 0.02 0.01 0.02 0.01 0.01
MSLP
1017.22 1016.94 1016.65 1016.45 1016.38 1016.47 1016.66 1016.92 1017.18 1017.40 1017.54 1017.62 1017.64 1017.63 1017.62 1017.62 1017.62 1017.62 1017.60 1017.58 1017.53 1017.49 1017.45 1017.44 1017.44 1017.46 1017.47 1017.47 1017.44 1017.37 1017.28 1017.18 1017.10 1017.04 1017.02 1017.01 1017.00 1016.96 1016.85 1016.68 1016.43 1016.13 1015.83
1017.73 1017.31 1016.93 1016.66 1016.56 1016.63 1016.83 1017.10 1017.37 1017.60 1017.78 1017.89 1017.96 1018.01 1018.06 1018.11 1018.16 1018.21 1018.22 1018.21 1018.18 1018.13 1018.10 1018.07 1018.07 1018.08 1018.09 1018.07 1018.01 1017.91 1017.79 1017.67 1017.58 1017.52 1017.51 1017.52 1017.54 1017.53 1017.45 1017.28 1017.03 1016.71 1016.35
1018.33 1017.78 1017.28 1016.94 1016.78 1016.80 1016.96 1017.20 1017.46 1017.69 1017.88 1018.03 1018.16 1018.28 1018.41 1018.54 1018.67 1018.76 1018.81 1018.81 1018.78 1018.73 1018.68 1018.65 1018.64 1018.63 1018.62 1018.58 1018.50 1018.39 1018.25 1018.11 1018.00 1017.95 1017.95 1017.98 1018.03 1018.05 1018.00 1017.85 1017.60 1017.27 1016.90
1019.05 1018.38 1017.79 1017.35 1017.12 1017.07 1017.16 1017.34 1017.54 1017.74 1017.92 1018.09 1018.27 1018.46 1018.67 1018.88 1019.08 1019.22 1019.31 1019.33 1019.30 1019.24 1019.18 1019.14 1019.11 1019.10 1019.08 1019.04 1018.95 1018.82 1018.67 1018.52 1018.40 1018.35 1018.35 1018.40 1018.47 1018.51 1018.48 1018.36 1018.14 1017.83 1017.46
1019.90 1019.15 1018.48 1017.98 1017.68 1017.54 1017.54 1017.61 1017.72 1017.84 1017.98 1018.14 1018.34 1018.58 1018.86 1019.14 1019.39 1019.59 1019.71 1019.74 1019.72 1019.66 1019.60 1019.55 1019.53 1019.52 1019.51 1019.46 1019.38 1019.25 1019.09 1018.94 1018.82 1018.76 1018.75 1018.80 1018.87 1018.92 1018.91 1018.82 1018.64 1018.36 1018.03
1020.88 1020.09 1019.40 1018.87 1018.50 1018.29 1018.17 1018.13 1018.11 1018.13 1018.18 1018.29 1018.48 1018.73 1019.04 1019.37 1019.66 1019.90 1020.04 1020.10 1020.09 1020.04 1019.98 1019.94 1019.93 1019.93 1019.93 1019.90 1019.83 1019.71 1019.56 1019.41 1019.28 1019.21 1019.18 1019.21 1019.26 1019.31 1019.31 1019.24 1019.09 1018.87 1018.59
1021.98 1021.20 1020.53 1020.00 1019.61 1019.33 1019.12 1018.95 1018.80 1018.68 1018.63 1018.66 1018.80 1019.03 1019.34 1019.67 1019.99 1020.24 1020.40 1020.47 1020.47 1020.43 1020.39 1020.36 1020.36 1020.38 1020.39 1020.38 1020.32 1020.22 1020.08 1019.94 1019.80 1019.70 1019.66 1019.65 1019.67 1019.69 1019.68 1019.63 1019.52 1019.36 1019.15
1023.17 1022.46 1021.84 1021.35 1020.97 1020.65 1020.37 1020.08 1019.81 1019.57 1019.40 1019.34 1019.40 1019.58 1019.85 1020.17 1020.47 1020.71 1020.87 1020.95 1020.95 1020.92 1020.89 1020.87 1020.88 1020.90 1020.92 1020.92 1020.87 1020.78 1020.65 1020.50 1020.36 1020.24 1020.16 1020.12 1020.09 1020.08 1020.05 1020.00 1019.92 1019.81 1019.68
1024.44 1023.80 1023.27 1022.85 1022.51 1022.18 1021.85 1021.49 1021.12 1020.78 1020.51 1020.35 1020.34 1020.45 1020.67 1020.93 1021.19 1021.41 1021.54 1021.60 1021.59 1021.56 1021.52 1021.50 1021.50 1021.51 1021.51 1021.49 1021.44 1021.34 1021.21 1021.06 1020.92 1020.79 1020.69 1020.60 1020.54 1020.48 1020.43 1020.37 1020.31 1020.24 1020.17
1025.74 1025.19 1024.76 1024.42 1024.11 1023.80 1023.45 1023.05 1022.63 1022.22 1021.89 1021.67 1021.59 1021.64 1021.78 1021.98 1022.18 1022.33 1022.42 1022.44 1022.41 1022.35 1022.29 1022.24 1022.20 1022.17 1022.14 1022.08 1021.99 1021.87 1021.73 1021.59 1021.44 1021.31 1021.20 1021.10 1021.00 1020.91 1020.83 1020.75 1020.69 1020.65 1020.62
1027.07 1026.59 1026.24 1025.96 1025.70 1025.41 1025.06 1024.65 1024.21 1023.78 1023.42 1023.18 1023.06 1023.06 1023.14 1023.26 1023.38 1023.46 1023.48 1023.44 1023.37 1023.27 1023.16 1023.06 1022.96 1022.87 1022.76 1022.64 1022.49 1022.34 1022.18 1022.03 1021.90 1021.79 1021.69 1021.59 1021.48 1021.37 1021.26 1021.16 1021.09 1021.05 1021.05
1028.39 1027.98 1027.68 1027.44 1027.20 1026.92 1026.57 1026.16 1025.73 1025.32 1024.99 1024.75 1024.62 1024.58 1024.61 1024.67 1024.70 1024.70 1024.64 1024.53 1024.40 1024.24 1024.08 1023.91 1023.74 1023.56 1023.36 1023.15 1022.94 1022.73 1022.55 1022.41 1022.30 1022.21 1022.15 1022.07 1021.98 1021.86 1021.74 1021.62 1021.53 1021.48 1021.48
1029.71 1029.34 1029.06 1028.82 1028.56 1028.26 1027.90 1027.50 1027.10 1026.73 1026.43 1026.23 1026.12 1026.08 1026.07 1026.06 1026.01 1025.92 1025.79 1025.61 1025.41 1025.20 1024.98 1024.75 1024.50 1024.22 1023.93 1023.63 1023.33 1023.07 1022.86 1022.72 1022.64 1022.60 1022.58 1022.56 1022.50 1022.40 1022.28 1022.15 1022.03 1021.96 1021.94
1031.00 1030.66 1030.37 1030.09 1029.78 1029.43 1029.03 1028.62 1028.24 1027.91 1027.68 1027.53 1027.45 1027.41 1027.37 1027.31 1027.19 1027.03 1026.82 1026.58 1026.33 1026.07 1025.80 1025.52 1025.20 1024.85 1024.47 1024.07 1023.70 1023.39 1023.15 1023.01 1022.96 1022.98 1023.02 1023.06 1023.05 1022.99 1022.88 1022.74 1022.61 1022.51 1022.46
1032.25 1031.93 1031.61 1031.27 1030.87 1030.43 1029.97 1029.53 1029.15 1028.86 1028.68 1028.58 1028.53 1028.50 1028.44 1028.33 1028.16 1027.93 1027.66 1027.37 1027.09 1026.81 1026.52 1026.21 1025.85 1025.44 1024.99 1024.53 1024.09 1023.72 1023.46 1023.32 1023.30 1023.37 1023.48 1023.58 1023.63 1023.61 1023.53 1023.39 1023.25 1023.13 1023.05
1033.43 1033.13 1032.78 1032.35 1031.85 1031.31 1030.76 1030.27 1029.88 1029.61 1029.45 1029.39 1029.37 1029.34 1029.26 1029.10 1028.88 1028.59 1028.28 1027.97 1027.68 1027.40 1027.11 1026.80 1026.44 1026.00 1025.51 1025.00 1024.52 1024.11 1023.82 1023.68 1023.68 1023.79 1023.95 1024.11 1024.22 1024.25 1024.20 1024.08 1023.93 1023.79 1023.69
1034.50 1034.23 1033.85 1033.36 1032.76 1032.12 1031.49 1030.94 1030.52 1030.24 1030.10 1030.05 1030.03 1029.99 1029.88 1029.68 1029.40 1029.07 1028.73 1028.40 1028.11 1027.86 1027.60 1027.32 1026.97 1026.55 1026.05 1025.52 1025.00 1024.57 1024.26 1024.11 1024.11 1024.25 1024.44 1024.65 1024.80 1024.87 1024.85 1024.76 1024.62 1024.48 1024.36
1035.43 1035.21 1034.82 1034.28 1033.62 1032.91 1032.21 1031.61 1031.15 1030.86 1030.71 1030.66 1030.62 1030.55 1030.40 1030.15 1029.81 1029.44 1029.07 1028.73 1028.46 1028.23 1028.02 1027.78 1027.48 1027.08 1026.60 1026.06 1025.54 1025.09 1024.76 1024.59 1024.59 1024.72 1024.93 1025.15 1025.34 1025.44 1025.45 1025.38 1025.26 1025.12 1025.00
1036.20 1036.03 1035.68 1035.13 1034.45 1033.70 1032.97 1032.34 1031.86 1031.55 1031.39 1031.31 1031.24 1031.13 1030.91 1030.60 1030.21 1029.79 1029.39 1029.04 1028.78 1028.57 1028.40 1028.21 1027.95 1027.60 1027.15 1026.63 1026.11 1025.65 1025.31 1025.12 1025.10 1025.21 1025.41 1025.63 1025.82 1025.94 1025.96 1025.91 1025.81 1025.69 1025.57
1036.81 1036.70 1036.40 1035.90 1035.24 1034.51 1033.79 1033.17 1032.69 1032.38 1032.19 1032.08 1031.97 1031.79 1031.52 1031.14 1030.68 1030.20 1029.76 1029.39 1029.12 1028.93 1028.79 1028.63 1028.42 1028.10 1027.69 1027.20 1026.70 1026.24 1025.89 1025.68 1025.63 1025.71 1025.88 1026.08 1026.25 1026.36 1026.39 1026.35 1026.27 1026.16 1026.05
1037.26 1037.24 1037.02 1036.59 1036.01 1035.34 1034.67 1034.09 1033.64 1033.32 1033.13 1032.98 1032.82 1032.58 1032.24 1031.79 1031.27 1030.73 1030.23 1029.83 1029.54 1029.34 1029.20 1029.07 1028.88 1028.60 1028.22 1027.77 1027.29 1026.84 1026.49 1026.27 1026.18 1026.23 1026.36 1026.52 1026.66 1026.74 1026.76 1026.72 1026.63 1026.53 1026.43
1037.61 1037.67 1037.54 1037.22 1036.74 1036.17 1035.59 1035.07 1034.65 1034.35 1034.15 1033.97 1033.76 1033.46 1033.05 1032.54 1031.95 1031.35 1030.81 1030.36 1030.03 1029.81 1029.66 1029.52 1029.34 1029.09 1028.74 1028.33 1027.88 1027.46 1027.11 1026.88 1026.78 1026.79 1026.87 1026.98 1027.07 1027.12 1027.11 1027.05 1026.95 1026.84 1026.74
1037.91 1038.04 1038.01 1037.80 1037.44 1036.98 1036.50 1036.05 1035.67 1035.39 1035.17 1034.96 1034.70 1034.36 1033.90 1033.33 1032.70 1032.05 1031.46 1030.96 1030.59 1030.33 1030.15 1029.99 1029.81 1029.58 1029.26 1028.88 1028.47 1028.08 1027.76 1027.53 1027.41 1027.39 1027.44 1027.50 1027.54 1027.54 1027.48 1027.38 1027.25 1027.12 1027.00
1038.22 1038.42 1038.48 1038.37 1038.11 1037.75 1037.35 1036.96 1036.61 1036.33 1036.09 1035.85 1035.56 1035.17 1034.67 1034.08 1033.41 1032.74 1032.11 1031.58 1031.17 1030.86 1030.65 1030.47 1030.28 1030.05 1029.75 1029.41 1029.05 1028.70 1028.41 1028.21 1028.09 1028.05 1028.06 1028.08 1028.08 1028.02 1027.91 1027.76 1027.58 1027.41 1027.26
1038.57 1038.83 1038.96 1038.93 1038.75 1038.46 1038.11 1037.74 1037.40 1037.10 1036.83 1036.55 1036.22 1035.81 1035.30 1034.69 1034.02 1033.34 1032.71 1032.16 1031.71 1031.38 1031.13 1030.92 1030.72 1030.49 1030.22 1029.92 1029.60 1029.30 1029.06 1028.88 1028.78 1028.73 1028.72 1028.70 1028.65 1028.55 1028.39 1028.18 1027.95 1027.72 1027.52
1038.99 1039.30 1039.47 1039.49 1039.35 1039.08 1038.74 1038.36 1037.99 1037.65 1037.33 1037.01 1036.65 1036.22 1035.71 1035.11 1034.47 1033.81 1033.19 1032.63 1032.18 1031.82 1031.54 1031.31 1031.10 1030.88 1030.63 1030.37 1030.09 1029.84 1029.64 1029.49 1029.40 1029.36 1029.34 1029.30 1029.22 1029.07 1028.87 1028.61 1028.33 1028.06 1027.80
Thickness
5699 5699 5697 5697 5696 5696 5695 5694 5693 5693 5693 5693 5693 5693 5694 5695 5696 5697 5698 5699 5700 5701 5701 5701 5702 5702 5703 5703 5704 5704 5705 5706 5708 5708 5709 5711 5712 5713 5714 5714 5715 5715 5716
5697 5695 5693 5693 5692 5691 5690 5689 5688 5688 5688 5688 5688 5689 5690 5690 5691 5692 5692 5693 5694 5695 5696 5696 5697 5697 5697 5698 5698 5699 5700 5701 5702 5703 5704 5705 5706 5708 5708 5709 5710 5711 5711
5692 5690 5688 5688 5687 5687 5686 5685 5684 5683 5683 5683 5684 5684 5685 5685 5686 5686 5687 5688 5689 5689 5690 5690 5691 5692 5692 5692 5693 5694 5695 5696 5697 5699 5700 5700 5701 5702 5703 5704 5705 5705 5706
5687 5685 5684 5683 5682 5682 5681 5680 5679 5679 5678 5679 5679 5679 5679 5680 5680 5681 5681 5682 5682 5683 5684 5684 5685 5685 5686 5687 5688 5689 5690 5691 5693 5694 5694 5695 5696 5696 5697 5698 5699 5700 5700
5681 5680 5678 5678 5677 5676 5675 5675 5674 5673 5673 5673 5673 5673 5674 5674 5674 5675 5675 5675 5676 5677 5677 5678 5678 5679 5680 5681 5682 5683 5685 5686 5687 5688 5689 5689 5690 5691 5692 5693 5693 5694 5694
5674 5674 5672 5672 5671 5671 5670 5669 5669 5668 5668 5668 5667 5667 5667 5668 5668 5668 5669 5669 5669 5670 5671 5671 5672 5672 5674 5675 5676 5677 5679 5680 5681 5682 5683 5683 5684 5685 5686 5687 5687 5688 5688
5667 5667 5665 5665 5665 5664 5664 5663 5663 5663 5662 5661 5661 5661 5661 5661 5661 5661 5662 5662 5663 5663 5664 5664 5665 5666 5667 5668 5669 5671 5672 5674 5675 5676 5676 5677 5678 5679 5680 5681 5681 5682 5682
5660 5659 5658 5657 5657 5657 5657 5657 5656 5656 5655 5655 5654 5654 5654 5654 5654 5654 5654 5655 5655 5656 5656 5657 5658 5659 5660 5661 5663 5664 5666 5668 5669 5669 5670 5670 5672 5673 5674 5675 5675 5675 5676
5652 5651 5650 5649 5649 5649 5649 5649 5649 5648 5647 5647 5647 5647 5647 5646 5646 5646 5647 5647 5648 5648 5648 5649 5650 5651 5653 5654 5656 5658 5659 5660 5662 5662 5663 5663 5665 5667 5668 5668 5669 5669 5669
5643 5643 5642 5642 5641 5641 5641 5641 5641 5640 5639 5639 5638 5639 5638 5638 5638 5638 5639 5639 5640 5640 5640 5641 5642 5643 5645 5646 5648 5650 5652 5653 5654 5654 5655 5656 5658 5660 5661 5661 5662 5662 5662
5632 5633 5633 5633 5633 5632 5632 5632 5632 5631 5631 5630 5630 5630 5630 5630 5630 5630 5630 5631 5631 5631 5632 5633 5634 5635 5637 5638 5641 5643 5644 5645 5646 5646 5647 5649 5651 5652 5653 5654 5655 5655 5655
5621 5622 5624 5624 5624 5623 5623 5623 5623 5622 5622 5622 5621 5621 5622 5622 5621 5621 5622 5622 5623 5623 5623 5624 5626 5627 5628 5630 5632 5634 5635 5636 5637 5638 5639 5641 5643 5645 5646 5646 5647 5647 5648
5612 5612 5613 5614 5614 5614 5614 5613 5613 5614 5614 5613 5613 5613 5613 5613 5613 5613 5612 5613 5614 5614 5615 5616 5617 5619 5620 5622 5624 5625 5626 5627 5628 5629 5630 5633 5635 5636 5637 5638 5639 5639 5640
5602 5603 5603 5604 5605 5605 5604 5604 5604 5605 5605 5605 5605 5605 5605 5605 5604 5604 5604 5604 5605 5606 5607 5608 5609 5610 5611 5613 5614 5615 5617 5618 5618 5619 5621 5623 5626 5627 5628 5629 5630 5631 5631
5592 5591 5591 5592 5594 5594 5595 5594 5594 5595 5595 5595 5596 5596 5596 5596 5595 5596 5596 5596 5597 5597 5598 5599 5600 5601 5602 5603 5604 5606 5607 5608 5608 5609 5610 5613 5615 5617 5618 5619 5620 5621 5622
5581 5580 5580 5581 5582 5583 5584 5584 5584 5584 5585 5586 5587 5587 5587 5587 5587 5586 5587 5587 5588 5589 5590 5590 5590 5591 5592 5593 5594 5595 5597 5598 5598 5599 5601 5602 5604 5606 5608 5610 5610 5612 5613
5569 5569 5570 5571 5571 5572 5573 5574 5574 5575 5575 5575 5576 5577 5577 5577 5577 5577 5577 5578 5578 5579 5580 5580 5580 5581 5582 5583 5583 5585 5586 5587 5588 5589 5590 5592 5593 5595 5596 5598 5600 5601 5603
5557 5558 5559 5560 5560 5561 5562 5563 5564 5565 5564 5565 5566 5567 5568 5568 5568 5568 5567 5567 5568 5569 5570 5570 5570 5570 5571 5571 5572 5573 5574 5576 5577 5578 5579 5580 5582 5583 5585 5586 5588 5590 5592
5544 5544 5546 5547 5548 5549 5550 5552 5553 5553 5554 5554 5555 5556 5557 5558 5558 5558 5557 5557 5558 5559 5559 5560 5559 5560 5559 5559 5560 5561 5562 5564 5566 5567 5568 5569 5570 5572 5573 5574 5576 5578 5580
5530 5530 5531 5533 5535 5536 5537 5539 5540 5541 5541 5542 5543 5544 5546 5546 5547 5547 5547 5547 5548 5548 5548 5548 5548 5548 5548 5548 5549 5549 5550 5552 5553 5555 5557 5558 5559 5560 5561 5563 5564 5566 5567
5515 5516 5517 5518 5520 5522 5523 5526 5527 5528 5529 5530 5532 5533 5534 5535 5536 5536 5536 5536 5537 5538 5537 5537 5536 5536 5536 5536 5536 5535 5536 5539 5541 5543 5545 5546 5547 5548 5550 5551 5553 5554 5555
5500 5502 5503 5504 5506 5508 5511 5513 5516 5517 5517 5518 5520 5521 5522 5523 5524 5525 5525 5525 5526 5527 5526 5526 5526 5524 5524 5525 5524 5523 5522 5524 5527 5530 5532 5534 5535 5537 5538 5539 5541 5542 5543
5485 5486 5489 5490 5492 5495 5497 5499 5502 5503 5504 5505 5506 5508 5510 5511 5513 5514 5515 5515 5515 5516 5516 5516 5516 5515 5513 5512 5514 5514 5513 5512 5512 5515 5518 5521 5523 5524 5526 5527 5528 5529 5530
5469 5471 5474 5476 5478 5481 5484 5487 5489 5492 5493 5494 5495 5496 5497 5499 5501 5502 5504 5505 5505 5505 5506 5505 5505 5504 5503 5501 5501 5503 5504 5504 5501 5500 5503 5507 5510 5511 5513 5514 5516 5517 5518
5456 5458 5460 5463 5465 5468 5471 5474 5477 5479 5481 5482 5483 5484 5486 5487 5489 5491 5492 5494 5494 5494 5495 5494 5494 5493 5493 5492 5491 5491 5491 5492 5492 5490 5489 5492 5495 5498 5500 5501 5503 5504 5505
5443 5444 5447 5450 5453 5455 5458 5461 5464 5467 5469 5470 5472 5473 5474 5476 5478 5479 5481 5482 5483 5483 5483 5483 5483 5482 5482 5482 5481 5481 5480 5480 5481 5480 5479 5478 5481 5484 5486 5488 5490 5492 5493